IPO Subscription
Latest IPO
IPO Subscription is simple and easy at CHIEF. Clients can subscribe IPO via phone, mobile application or online platform with no handling fee. CHIEF provide full payment and margin financing to meet different needs from clients.

No IPO is available now.

Today Grey Market Trading
You can place the order via Chief Top Trader Professional Version, Online Version, and mobile App to seize investment opportunities from grey market.

No Grey Market Trading

Advantages
Easy online IPO subscription
Free of charge
Long subscription period
100% Margin
Real-time quote and trading
IPO placement
Deepen your Investment knowledge
Enrich your knowledge of investment and financial planning to make smarter decisions.
Full Payment
Special Offer on commission
Promotional Period
Online subscription fee is waived
Phone subscription
HK$50 / RMB¥50
Margin
90% Margin Rate
Phone and Online subscription
HK$100 / RMB¥100
International Placement
The fund of the subscription is usually higher than normal, which targets professional investors with more investing experience. Investors are required to undergo suitability assessments before subscribing in an international placement.
Advantage 1
Flexible Fund Movement
Clients can deposit fund after confirming the price and quantity of the subscription
Advantage 2
Large Subscription
Clients can subscribe more than public offering. If clients involve in cornerstone investment, he/she can confirm the shared applied for.
Advantage 3
Having Pricing Power
Some IPOs can be set to subscribe at an upper price limit for targeting the best value
Steps for Subscription
Subscribe IPO at CHIEF to enjoy unprecedented speed and convenience. The advantages include:
Simple steps to save time
Amend and lengthen subscription period at anytime
Subscribe via multiple platforms
"Chief Easy" Web version IPO
IPO Subscription Guide (Chinese only)
"ChiefTrade" Mobile application
IPO Subscription Guide (Chinese only)
IPO Subscription

No IPO Subscription

Best Performing IPO
Stock Code Stock Name Offer ($) Closing ($) Change (%)
01912 CONTEL 0.650 2.540 290.77 %
06055 CTIHK 4.880 18.020 269.26 %
08418 OPTIMA AUTO 0.240 0.780 225.00 %
03603 XINJI SHAXI 1.000 3.050 205.00 %
01769 SCHOLAR EDU 3.680 11.020 199.46 %
06185 CANSINOBIO-B 22.000 62.500 184.09 %
Worst Performing IPO
Stock Code Stock Name Offer ($) Closing ($) Change (%)
01379 WENLING MCT 6.750 0.000 -100.00 %
01650 HYGIEIA GROUP 0.300 0.010 -96.67 %
08096 TASTY CONCEPTS 0.700 0.078 -88.86 %
08635 NOVACON TECH 0.530 0.135 -74.53 %
02682 YUN LEE MARINE 0.500 0.138 -72.40 %
02108 K2 F&B 0.750 0.219 -70.80 %
IPO Remark

三個月內之新上市股份

Stock Code Stock Name Number of Shares PAR ($) Offer ($) Listing Date
01442 INFINITY L&T 500,000,000 HKD0.01 0.31 2020-01-21
01601 ZGC TEC LEASING 333,334,000 RMB1.0 1.52 2020-01-21
09933 GHW INTL 250,000,000 HKD0.01 0.51 2020-01-21
01745 LVJI TECH 352,700,000 USD0.01 2.12 2020-01-17
01937 JIACHEN HOLDING 250,000,000 HKD0.01 0.53 2020-01-17
09938 WAH WO HOLDINGS 250,000,000 HKD0.01 0.50 2020-01-17
00301 SANVO CHEMICALS 100,000,000 HKD0.01 1.30 2020-01-16
01412 Q P GROUP 133,000,000 HKD0.01 1.18 2020-01-16
01525 GENCH EDU 100,000,000 HKD0.01 6.05 2020-01-16
01740 VALUES CULTURAL 250,000,000 USD0.0 0.50 2020-01-16
01925 KWUNGS HOLDINGS 100,000,000 HKD0.0 1.28 2020-01-16
09919 ACTIVATION GP 200,000,000 HKD0.0 2.02 2020-01-16
09968 HUIJING HLDGS 788,100,000 HKD0.01 1.93 2020-01-16
01416 CTR HOLDINGS 350,000,000 USD0.0 0.36 2020-01-15
01650 HYGIEIA GROUP 500,000,000 HKD0.01 0.30 2020-01-15
03718 BJ ENT URBAN 900,000,000 HKD0.1 0.69 2020-01-15
09922 JIUMAOJIU 333,400,000 USD0.0 6.60 2020-01-15
01802 WENYE GROUP 148,500,000 HKD0.0 1.06 2020-01-14
08500 ICONCULTURE 45,000,000 HKD0.01 1.39 2020-01-14
02528 FW FASHION INT 100,000,000 HKD0.01 2.00 2020-01-13
08646 CHINA HONGGUANG 75,000,000 HKD0.01 0.77 2020-01-13
09918 WISE ALLY INTL 500,000,000 HKD0.01 0.25 2020-01-10
09998 KWAN YONG 200,000,000 HKD0.01 0.65 2020-01-08
01542 TAIZHOU WATER 50,000,000 RMB1.0 4.22 2019-12-31
09911 NEWBORNTOWN 156,400,000 USD0.0 1.68 2019-12-31
06199 BANK OF GUIZHOU 2,200,000,000 RMB1.0 2.48 2019-12-30
09909 POWERLONG CM 172,500,000 0.01 9.50 2019-12-30
06049 POLY PPT DEV 153,333,400 RMB 1 35.10 2019-12-19
09928 TIMES NEIGHBOR 161,820,000 HKD0.01 5.15 2019-12-19
01553 MAIKE TUBE 98,400,000 USD0.0 2.28 2019-12-18
01691 JS GLOBAL LIFE 574,804,500 USD 0.00001 5.20 2019-12-18
06193 TAILAM TECHCON 79,000,000 HKD0.01 1.30 2019-12-18
01593 CHEN LIN EDU 250,000,000 HKD0.0 2.20 2019-12-13
03680 SUOXINDA 100,000,000 HKD0.01 1.50 2019-12-13
06919 RENRUI HR 41,130,100 USD 0.00005 26.60 2019-12-13
08216 MAXICITY 100,000,000 HKD0.01 0.60 2019-12-13
02400 XD INC 67,660,000 USD 0.0001 11.10 2019-12-12
09966 ALPHAMAB-B 206,313,000 USD 0.000002 10.20 2019-12-12
01503 CMC REIT 750,000,000 N/A 3.42 2019-12-10
02500 VENUS MEDTECH-B 90,318,000 RMB 1 33.00 2019-12-10
08645 NOMAD TECH 150,000,000 0.01 0.40 2019-12-09
02231 JY GRANDMARK 446,173,000 0.01 3.16 2019-12-05
08208 WMCH GLOBAL 150,000,000 HKD0.01 0.40 2019-11-29
01425 JUSTIN ALLEN H 312,500,000 HKD0.01 0.40 2019-11-28
03759 PHARMARON 134,016,500 RMB 1 39.50 2019-11-28
09988 BABA-SW 575,000,000 USD0.0 176.00 2019-11-26
01756 HUALI UNIV 300,000,000 USD0.0 3.26 2019-11-25
02296 HUARCHI GLOBAL 500,000,000 HKD0.01 0.25 2019-11-21
02103 SINIC HOLDINGS 570,187,000 0.01 3.98 2019-11-15
03348 CHINA PENGFEI 125,000,000 HKD0.01 1.58 2019-11-15
08617 BEST LINKING 100,000,000 HKD0.01 0.55 2019-11-15
01747 HOME CONTROL 125,000,000 USD 0.01 1.02 2019-11-14
08627 ORANGE TOUR 200,000,000 USD0.0 0.28 2019-11-14
01346 LEVER STYLE 172,800,000 HKD0.01 0.85 2019-11-13
01401 SPROCOMM INTEL 250,000,000 HKD0.01 0.50 2019-11-13
06186 CHINA FEIHE 893,340,000 USD0.0 7.50 2019-11-13
01640 RUICHENG CHINA 100,000,000 HKD0.01 1.25 2019-11-12
02959 N/A N/A N/A N/A 2019-11-12
03681 SINOMAB BIO-B 182,129,400 N/A 7.60 2019-11-12
01427 CH TIANBAO GP 209,456,000 0.01 2.50 2019-11-11
01501 KDL MEDICAL 46,000,000 RMB 1 20.80 2019-11-08
01870 ACME INTL HLDGS 130,000,000 HKD0.01 0.97 2019-11-08
01875 TOT BIOPHARM-B 90,000,000 N/A 6.55 2019-11-08
01921 DALIPAL HLDG 300,000,000 HKD0.1 1.59 2019-11-08
01987 BENG SOON MACH 250,000,000 HKD0.01 0.50 2019-11-08
03603 XINJI SHAXI 375,000,000 HKD0.01 1.00 2019-11-08
01379 WENLING MCT 20,000,000 RMB 1 6.75 2019-11-06
01922 YINCHENG LS 67,152,000 0.01 2.18 2019-11-06
02163 BROAD HOMES 122,035,400 RMB 1 9.68 2019-11-06
01821 ESR 751,732,000 USD 0.001 16.80 2019-11-01
00302 CMGE 530,150,000 USD 0.0001 2.83 2019-10-31
01847 GHPC 133,882,000 RMB1.0 3.36 2019-10-31
02957 N/A N/A N/A N/A 2019-10-29
06855 ASCENTAGE-B 14,008,000 USD 0.0001 34.20 2019-10-28
01692 TOWNRAY HLDGS 100,000,000 HKD0.01 1.30 2019-10-25
01853 CHUNCHENG HEAT 116,700,000 RMB1.0 2.35 2019-10-24
01871 CHINA ORIENTED 100,000,000 HKD0.01 1.28 2019-10-24
IPO Lock Up
Stock Code Stock Name Lock-up End Date Listing Date Offer ($) Closing ($) Day(s) Remain
01877 JUNSHI BIO-B 2019-12-23 2018-12-24 19.38 25.550 Lock-up Over
03978 BESTSTUDY EDU 2019-12-26 2018-12-27 2.40 4.400 Lock-up Over
01713 SICHUAN EN INV 2019-12-27 2018-12-28 1.77 1.820 Lock-up Over
01759 SINO GAS HLDGS 2019-12-27 2018-12-28 2.80 3.030 Lock-up Over
01796 YIELD GO HLDGS 2019-12-30 2018-12-31 1.05 0.720 Lock-up Over
01637 SH GROUP HLDG 2020-01-02 2017-01-03 1.20 0.410 Lock-up Over
01845 WG ENV TECH 2020-01-02 2019-01-03 0.88 0.610 Lock-up Over
01743 CANGNAN INST 2020-01-03 2019-01-04 15.80 34.400 Lock-up Over
08631 SUN KONG HLDGS 2020-01-07 2019-01-08 0.60 0.196 Lock-up Over
02360 BEST MART 360 2020-01-10 2019-01-11 1.00 2.370 Lock-up Over
02885 PEIPORT HOLD 2020-01-10 2019-01-11 1.25 0.455 Lock-up Over
01767 TS WONDERS 2020-01-13 2019-01-14 0.50 0.445 Lock-up Over
01785 CHENGDU EXPWAY 2020-01-14 2019-01-15 2.20 2.080 Lock-up Over
02013 WEIMOB INC 2020-01-14 2019-01-15 2.80 4.490 Lock-up Over
06162 TR INTERIORS 2020-01-14 2019-01-15 0.25 0.125 Lock-up Over
08479 JTF INTL 2020-01-16 2018-01-17 0.50 0.310 Lock-up Over
01851 GINGKO EDU 2020-01-17 2019-01-18 1.44 1.910 Lock-up Over
02558 JINSHANG BANK 2020-01-17 2019-07-18 3.82 1.540 Lock-up Over
08043 ATLINKS 2020-01-18 2018-01-19 0.50 0.155 Lock-up Over
01890 CHINA KEPEI 2020-01-24 2019-01-25 2.48 4.500 2
01896 MAOYAN ENT 2020-02-03 2019-02-04 14.80 13.080 12
01703 PALACE BANQUET 2020-02-14 2019-02-15 0.50 0.295 23
08036 EBROKER GROUP 2020-02-18 2019-02-19 0.28 0.160 27
08535 VISTAR HOLDINGS 2020-02-19 2018-02-12 0.17 0.080 28
02019 DEXIN CHINA 2020-02-25 2019-02-26 2.80 3.060 34
08607 NARNIA GROUP 2020-02-25 2019-02-26 0.40 0.255 34
01793 WECON HOLDINGS 2020-02-26 2019-02-27 0.63 0.234 35
01025 KNT HOLDINGS 2020-02-27 2019-02-28 0.98 0.365 36
01872 GUAN CHAO HLDGS 2020-02-27 2019-02-28 0.43 0.222 36
01902 YINCHENG INTL 2020-03-05 2019-03-06 2.38 2.590 43
02108 K2 F&B 2020-03-05 2019-03-06 0.75 0.219 43
01158 NC HOTEL 2020-03-10 2019-03-11 16.50 15.000 48
01917 DOUMOB 2020-03-13 2019-03-14 0.41 0.186 51
01563 IA FIN LEASING 2020-03-14 2019-03-15 0.85 1.260 52
01891 HENG HUP 2020-03-14 2019-03-15 0.50 0.174 52
01907 CHINA RISUN GP 2020-03-14 2019-03-15 2.80 2.520 52
03316 BINJIANG SER 2020-03-14 2019-03-15 6.96 10.200 52
08096 TASTY CONCEPTS 2020-03-14 2019-03-15 0.70 0.078 52
02682 YUN LEE MARINE 2020-03-17 2019-03-18 0.50 0.138 55
03662 AOYUAN HEALTHY 2020-03-17 2019-03-18 3.66 6.290 55
01865 PIPELINE ENG 2020-03-26 2019-03-27 0.55 1.050 64
06819 INTELLICENTRICS 2020-03-26 2019-03-27 5.35 5.490 64
08537 DOMINATE GP 2020-03-26 2019-03-27 0.30 0.149 64
01797 KOOLEARN 2020-03-27 2019-03-28 10.20 25.500 65
06185 CANSINOBIO-B 2020-03-27 2019-03-28 22.00 62.500 65
08448 UNI PRINTSHOP 2020-03-27 2018-03-28 0.23 0.069 65
02718 DONGZHENG AFC 2020-04-02 2019-04-03 3.06 0.900 71
02660 ZENGAME 2020-04-15 2019-04-16 1.23 0.750 84
08507 I.CENTURY HLDG 2020-04-15 2018-04-16 0.58 0.135 84
03321 WAI HUNG GROUP 2020-04-22 2019-04-23 1.40 0.880 91
01545 DESIGN CAPITAL 2020-04-24 2019-04-25 0.30 0.115 93
01906 BONNY HLDG 2020-04-25 2019-04-26 0.58 0.560 94
06806 SWHY 2020-04-25 2019-04-26 3.63 2.200 94
01780 B & D STRATEGIC 2020-04-29 2019-04-30 0.84 0.650 98
08635 NOVACON TECH 2020-05-01 2019-05-02 0.53 0.135 100
01753 DUIBA 2020-05-06 2019-05-07 6.00 3.870 105
01857 CEB WATER 2020-05-07 2019-05-08 2.99 1.770 106
01873 VIVA BIOTECH 2020-05-08 2019-05-09 4.41 4.490 107
01903 JBB BUILDERS 2020-05-09 2019-05-10 1.18 0.810 108
01832 SAI LEISURE 2020-05-15 2019-05-16 3.54 1.990 114
02346 UNIVERSAL STAR 2020-05-15 2019-05-16 1.00 1.800 114
02230 MEDIALINK GROUP 2020-05-20 2019-05-21 0.45 0.156 119
01817 MULSANNE GROUP 2020-05-26 2019-05-27 4.39 7.680 125
02060 PUJIANG INTL 2020-05-27 2019-05-28 2.68 3.950 126
03759 PHARMARON 2020-05-27 2019-11-28 39.50 48.850 126
03868 XINYI ENERGY 2020-05-27 2019-05-28 1.94 2.150 126
01521 FRONTAGE 2020-05-29 2019-05-30 3.20 4.330 128
02181 MABPHARM-B 2020-05-30 2019-05-31 1.50 1.000 129
08183 SPEED APPAREL 2020-05-30 2017-05-31 0.50 0.560 129
01905 HAITONG UT 2020-06-02 2019-06-03 1.88 1.540 132
00667 CHINA EAST EDU 2020-06-11 2019-06-12 11.25 15.980 141
06055 CTIHK 2020-06-11 2019-06-12 4.88 18.020 141
02189 KATO (HK) HLDGS 2020-06-12 2019-06-13 0.60 0.590 142
06811 TAI HING GROUP 2020-06-12 2019-06-13 3.00 1.580 142
03692 HANSOH PHARMA 2020-06-13 2019-06-14 14.26 27.600 143
03877 CSSC SHIPPING 2020-06-16 2019-06-17 1.34 1.150 146
01935 JH EDUCATION 2020-06-17 2019-06-18 1.50 1.670 147
06117 RIZHAO PORT JR 2020-06-18 2019-06-19 1.50 0.880 148
01769 SCHOLAR EDU 2020-06-20 2019-06-21 3.68 11.020 150
01951 JXR 2020-06-24 2019-06-25 8.54 11.760 154
01849 AM GROUP 2020-06-25 2019-06-26 0.65 0.243 155
01286 IMPRO PRECISION 2020-06-27 2019-06-28 3.00 3.090 157
01701 TU YI HLDG 2020-06-27 2019-06-28 0.52 1.270 157
01842 GROWN UP GROUP 2020-06-27 2019-06-28 0.50 0.465 157
01901 FEIYANG GROUP 2020-06-27 2019-06-28 1.05 1.100 157
01930 SHINELONG 2020-06-27 2019-06-28 0.88 0.385 157
01943 SILVER TIDE 2020-06-27 2019-06-28 0.50 0.340 157
03798 HOMELAND ITL 2020-07-03 2019-07-04 1.35 2.560 163
00924 KHOON GROUP 2020-07-04 2019-07-05 0.50 0.485 164
08157 XIANGXING INT 2020-07-06 2017-07-07 0.22 0.315 166
02180 MANPOWER GRC 2020-07-09 2019-07-10 9.90 9.960 169
01839 CIMC VEHICLES 2020-07-10 2019-07-11 6.38 6.270 170
01931 IVD MEDICAL 2020-07-11 2019-07-12 3.07 3.150 171
01977 ANALOGUE HLDGS 2020-07-11 2019-07-12 1.20 1.030 171
06093 HEVOL SERVICES 2020-07-11 2019-07-12 1.28 1.520 171
08612 WORLD SUPER 2020-07-11 2019-07-12 0.55 0.820 171
01775 BEXCELLENT GP 2020-07-12 2018-07-13 1.08 0.500 172
00382 EDVANTAGE GROUP 2020-07-15 2019-07-16 2.85 4.870 175
01134 KELFRED 2020-07-15 2019-07-16 1.00 1.030 175
01912 CONTEL 2020-07-15 2019-07-16 0.65 2.540 175
01949 PLATT NERA 2020-07-15 2019-07-16 1.25 0.450 175
02772 ZHONGLIANG HLDG 2020-07-15 2019-07-16 5.55 5.800 175
06805 KIMOU ENVIRON 2020-07-15 2019-07-16 1.33 0.700 175
01676 C SHENGHAI FOOD 2020-07-17 2017-07-18 0.66 0.130 177
08512 HYFUSIN GROUP 2020-07-18 2018-07-19 0.30 0.045 178
08475 K GROUP HLDGS 2020-08-12 2018-08-13 0.72 0.590 203
01920 HANDS FORM HLDG 2020-08-15 2019-08-16 0.20 0.184 206
08482 WAN LEADER 2020-09-04 2018-09-05 0.28 0.211 226
08609 EGGRICULTURE 2020-09-06 2018-09-07 0.50 0.142 228
08601 BOLTEK 2020-09-12 2018-09-13 0.40 0.232 234
03928 S&T HLDGS 2020-09-18 2019-09-19 1.07 1.120 240
02696 HENLIUS-B 2020-09-24 2019-09-25 49.60 40.650 246
08668 YING HAI GROUP 2020-09-25 2019-09-26 0.24 0.160 247
01876 BUD APAC 2020-09-29 2019-09-30 27.00 24.850 251
01960 TBKS HLDGS 2020-09-29 2019-09-30 0.50 0.320 251
03938 LFG INV HLDGS 2020-09-29 2019-09-30 1.68 0.730 251
01781 SC CREATIVE DEV 2020-10-03 2018-10-04 1.10 0.173 255
06820 FRIENDTIMES 2020-10-07 2019-10-08 1.52 1.120 259
03601 LUDASHI 2020-10-09 2019-10-10 2.70 3.720 261
06110 TOPSPORTS 2020-10-09 2019-10-10 8.50 10.500 261
01895 XINYUAN PM 2020-10-10 2019-10-11 2.08 1.480 262
08418 OPTIMA AUTO 2020-10-10 2019-10-11 0.24 0.780 262
01846 EUROEYES 2020-10-14 2019-10-15 7.50 8.660 266
01582 CR CONSTRUCTION 2020-10-15 2019-10-16 1.00 0.720 267
01955 JOHNSON HLDGS 2020-10-15 2019-10-16 1.00 0.640 267
01084 GF HYDROCOLLOID 2020-10-16 2019-10-17 1.16 1.200 268
01283 ACCEL GROUP 2020-10-17 2019-10-18 0.73 0.540 269
01959 CENT UNIT HLDG 2020-10-17 2019-10-18 1.08 0.410 269
01967 CONFIDENCE IN 2020-10-17 2019-10-18 2.00 5.100 269
02606 LANGUANGJUSTBON 2020-10-17 2019-10-18 37.00 49.600 269
08441 IWS GROUP 2020-10-21 2019-10-22 0.32 0.530 273
08611 MINDTELL TECH 2020-10-21 2018-10-22 0.62 0.190 273
01843 SNACK EMPIRE 2020-10-22 2019-10-23 0.65 0.380 274
01853 CHUNCHENG HEAT 2020-10-23 2019-10-24 2.35 2.250 275
01871 CHINA ORIENTED 2020-10-23 2019-10-24 1.28 0.420 275
01692 TOWNRAY HLDGS 2020-10-24 2019-10-25 1.30 0.650 276
06855 ASCENTAGE-B 2020-10-27 2019-10-28 34.20 28.900 279
00302 CMGE 2020-10-30 2019-10-31 2.83 2.900 282
01847 GHPC 2020-10-30 2019-10-31 3.36 1.970 282
01821 ESR 2020-10-31 2019-11-01 16.80 17.820 283
01379 WENLING MCT 2020-11-05 2019-11-06 6.75 N/A 288
01922 YINCHENG LS 2020-11-05 2019-11-06 2.18 1.560 288
02163 BROAD HOMES 2020-11-05 2019-11-06 9.68 9.600 288
08259 HON CORP 2020-11-06 2018-11-07 0.50 0.122 289
01501 KDL MEDICAL 2020-11-07 2019-11-08 20.80 38.400 290
01870 ACME INTL HLDGS 2020-11-07 2019-11-08 0.97 0.445 290
01875 TOT BIOPHARM-B 2020-11-07 2019-11-08 6.55 4.510 290
01921 DALIPAL HLDG 2020-11-07 2019-11-08 1.59 1.420 290
01987 BENG SOON MACH 2020-11-07 2019-11-08 0.50 0.540 290
03603 XINJI SHAXI 2020-11-07 2019-11-08 1.00 3.050 290
01427 CH TIANBAO GP 2020-11-10 2019-11-11 2.50 2.510 293
01640 RUICHENG CHINA 2020-11-11 2019-11-12 1.25 0.800 294
03681 SINOMAB BIO-B 2020-11-11 2019-11-12 7.60 4.160 294
01346 LEVER STYLE 2020-11-12 2019-11-13 0.85 0.600 295
01401 SPROCOMM INTEL 2020-11-12 2019-11-13 0.50 0.740 295
06186 CHINA FEIHE 2020-11-12 2019-11-13 7.50 9.870 295
01747 HOME CONTROL 2020-11-13 2019-11-14 1.02 0.860 296
08627 ORANGE TOUR 2020-11-13 2019-11-14 0.28 0.250 296
02103 SINIC HOLDINGS 2020-11-14 2019-11-15 3.98 4.000 297
03348 CHINA PENGFEI 2020-11-14 2019-11-15 1.58 0.990 297
08617 BEST LINKING 2020-11-14 2019-11-15 0.55 0.520 297
02296 HUARCHI GLOBAL 2020-11-20 2019-11-21 0.25 0.239 303
01756 HUALI UNIV 2020-11-24 2019-11-25 3.26 3.020 307
01425 JUSTIN ALLEN H 2020-11-27 2019-11-28 0.40 0.385 310
02400 XD INC 2020-11-28 2019-12-12 11.10 24.150 311
08208 WMCH GLOBAL 2020-11-28 2019-11-29 0.40 0.315 311
02231 JY GRANDMARK 2020-12-04 2019-12-05 3.16 3.250 317
08645 NOMAD TECH 2020-12-08 2019-12-09 0.40 0.161 321
01503 CMC REIT 2020-12-09 2019-12-10 3.42 3.280 322
02500 VENUS MEDTECH-B 2020-12-09 2019-12-10 33.00 44.500 322
08621 METROPOLIS CAP 2020-12-11 2018-12-12 0.39 0.149 324
09966 ALPHAMAB-B 2020-12-11 2019-12-12 10.20 14.520 324
01593 CHEN LIN EDU 2020-12-12 2019-12-13 2.20 2.060 325
03680 SUOXINDA 2020-12-12 2019-12-13 1.50 1.770 325
06919 RENRUI HR 2020-12-12 2019-12-13 26.60 37.750 325
01553 MAIKE TUBE 2020-12-17 2019-12-18 2.28 1.490 330
01691 JS GLOBAL LIFE 2020-12-17 2019-12-18 5.20 5.560 330
06193 TAILAM TECHCON 2020-12-17 2019-12-18 1.30 1.540 330
06049 POLY PPT DEV 2020-12-18 2019-12-19 35.10 54.850 331
09928 TIMES NEIGHBOR 2020-12-18 2019-12-19 5.15 5.470 331
06199 BANK OF GUIZHOU 2020-12-29 2019-12-30 2.48 2.280 342
09909 POWERLONG CM 2020-12-29 2019-12-30 9.50 11.000 342
01542 TAIZHOU WATER 2020-12-30 2019-12-31 4.22 3.860 343
09911 NEWBORNTOWN 2020-12-30 2019-12-31 1.68 2.350 343
09998 KWAN YONG 2021-01-07 2020-01-08 0.65 0.720 351
09918 WISE ALLY INTL 2021-01-09 2020-01-10 0.25 0.176 353
02528 FW FASHION INT 2021-01-12 2020-01-13 2.00 1.400 356
08646 CHINA HONGGUANG 2021-01-12 2020-01-13 0.77 0.690 356
01802 WENYE GROUP 2021-01-13 2020-01-14 1.06 1.070 357
01416 CTR HOLDINGS 2021-01-14 2020-01-15 0.36 0.315 358
01650 HYGIEIA GROUP 2021-01-14 2020-01-15 0.30 0.010 358
03718 BJ ENT URBAN 2021-01-14 2020-01-15 0.69 0.680 358
09922 JIUMAOJIU 2021-01-14 2020-01-15 6.60 9.260 358
00301 SANVO CHEMICALS 2021-01-15 2020-01-16 1.30 1.260 359
01412 Q P GROUP 2021-01-15 2020-01-16 1.18 0.960 359
01525 GENCH EDU 2021-01-15 2020-01-16 6.05 7.530 359
01740 VALUES CULTURAL 2021-01-15 2020-01-16 0.50 0.570 359
01925 KWUNGS HOLDINGS 2021-01-15 2020-01-16 1.28 1.240 359
09919 ACTIVATION GP 2021-01-15 2020-01-16 2.02 1.590 359
09968 HUIJING HLDGS 2021-01-15 2020-01-16 1.93 1.930 359
01745 LVJI TECH 2021-01-16 2020-01-17 2.12 1.670 360
01937 JIACHEN HOLDING 2021-01-16 2020-01-17 0.53 0.315 360
09938 WAH WO HOLDINGS 2021-01-16 2020-01-17 0.50 0.740 360
01442 INFINITY L&T 2021-01-20 2020-01-21 0.31 0.340 364
01601 ZGC TEC LEASING 2021-01-20 2020-01-21 1.52 1.520 364
09933 GHW INTL 2021-01-20 2020-01-21 0.51 0.350 364
08519 JIA GROUP 2021-02-07 2018-02-08 0.30 0.089 382
08527 JLOGO HLDGS 2021-05-08 2018-05-09 0.50 0.650 472
08216 MAXICITY 2021-12-12 2019-12-13 0.60 0.395 690
08500 ICONCULTURE 2022-01-13 2020-01-14 1.39 1.010 722
08291 WAN CHENG METAL 2022-07-17 2017-07-18 0.65 0.077 907
IPO Performance
Stock Code Stock Name Listing Date Offer ($) Closing ($) Change (%)
01912 CONTEL 2019-07-16 0.650 2.540 290.77 %
06055 CTIHK 2019-06-12 4.880 18.020 269.26 %
08418 OPTIMA AUTO 2019-10-11 0.240 0.780 225.00 %
03603 XINJI SHAXI 2019-11-08 1.000 3.050 205.00 %
01769 SCHOLAR EDU 2019-06-21 3.680 11.020 199.46 %
06185 CANSINOBIO-B 2019-03-28 22.000 62.500 184.09 %
01967 CONFIDENCE IN 2019-10-18 2.000 5.100 155.00 %
01797 KOOLEARN 2019-03-28 10.200 25.500 150.00 %
01701 TU YI HLDG 2019-06-28 0.520 1.270 144.23 %
02400 XD INC 2019-12-12 11.100 24.150 117.57 %
1
2
3
4
5
Open Account Now
Quickly open an account via one of the following ways to enjoy one-stop investment and financial services.
Open an account online now in a few simple steps to seize the trading opportunities today. E-Account
Opening
Make an online appointment to open an account in any of our branches for the time which suits you most. Account Opening Appointment
Visit our conveniently located branches, where our staff are always committed to providing superior service to you. Apply in
Person
App Download
Instant trading of stocks after taking an in-depth look at every move of the market
Website Push Notifications
Provide the latest financial news and promotions

Subscribe to keep up to date with CHIEF
Informative contents include:
Latest news, coming seminar, featured articles on wealth management